Date String (YYYY-MM-DD hh:mm:ss) UTC,Instrument flags,Ambient pressure (hPa),Sample flow (lpm),Bypass flow (lpm),Sample temperature (°C),Ambient temperature (°C),ASC tube jacket temperature (°C),LED temperature (°C),Box temperature (°C),Sample RH (%),Span deviation,Mass concentration (μg/m³),Mass concentration (μg/m³),Mass concentration (μg/m³)
DateTimeUTC,F1_M11,P_M11,Q1_M11,Q2_M11,T1_M11,T2_M11,T3_M11,T4_M11,T5_M11,U1_M11,ZSPAN_M11,X0_M11,X2_M11,X1_M11
2021-10-20 23:00:00,,0829.8,5.01,0.00,30.2,29.4,00.0,39.2,31.9,10.4,0000.0,0014.45,0004.95,0004.20
2021-10-20 23:01:00,,0829.8,4.99,0.00,30.2,29.4,00.0,39.2,31.9,10.5,0000.0,0013.77,0004.99,0004.16
2021-10-20 23:02:00,,0829.7,5.01,0.00,30.2,29.4,00.0,39.2,31.9,10.5,0000.0,0013.48,0004.94,0004.11
2021-10-20 23:03:00,,0829.7,5.01,0.00,30.2,29.4,00.0,39.2,31.9,10.4,0000.0,0012.92,0004.88,0004.07
2021-10-20 23:04:00,,0829.7,4.98,0.00,30.2,29.5,00.0,39.2,32.0,10.4,0000.0,0012.70,0004.87,0004.03
2021-10-20 23:05:00,,0829.7,5.00,0.00,30.2,29.5,00.0,39.2,31.9,10.4,0000.0,0013.93,0004.83,0004.01
2021-10-20 23:06:00,,0829.8,5.01,0.00,30.2,29.5,00.0,39.2,31.9,10.5,0000.0,0014.32,0004.76,0003.97
2021-10-20 23:07:00,,0829.8,4.99,0.00,30.2,29.5,00.0,39.2,31.9,10.5,0000.0,0013.97,0004.70,0003.93
2021-10-20 23:08:00,,0829.8,4.99,0.00,30.2,29.5,00.0,39.2,31.9,10.3,0000.0,0014.80,0004.68,0003.88
2021-10-20 23:09:00,,0829.8,4.99,0.00,30.2,29.6,00.0,39.2,32.0,10.2,0000.0,0015.18,0004.61,0003.82
2021-10-20 23:10:00,,0829.8,5.00,0.00,30.2,29.6,00.0,39.2,32.0,10.2,0000.0,0014.39,0004.55,0003.76
2021-10-20 23:11:00,,0829.8,5.00,0.00,30.2,29.6,00.0,39.3,32.0,10.2,0000.0,0014.58,0004.52,0003.70
2021-10-20 23:12:00,,0829.8,5.01,0.00,30.2,29.6,00.0,39.3,32.0,10.2,0000.0,0014.94,0004.43,0003.64
2021-10-20 23:13:00,,0829.7,4.99,0.00,30.2,29.6,00.0,39.3,32.0,10.3,0000.0,0014.92,0004.36,0003.57
2021-10-20 23:14:00,,0829.6,5.02,0.00,30.2,29.6,00.0,39.3,31.9,10.3,0000.0,0014.94,0004.30,0003.51
2021-10-20 23:15:00,,0829.7,5.00,0.00,30.2,29.6,00.0,39.3,31.9,10.3,0000.0,0014.87,0004.13,0003.43
2021-10-20 23:16:00,,0829.8,4.99,0.00,30.2,29.6,00.0,39.3,31.9,10.3,0000.0,0013.83,0004.06,0003.34
2021-10-20 23:17:00,,0829.8,5.00,0.00,30.2,29.6,00.0,39.3,31.9,10.3,0000.0,0013.38,0004.03,0003.27
2021-10-20 23:18:00,,0829.8,5.01,0.00,30.2,29.6,00.0,39.3,31.9,10.4,0000.0,0013.74,0004.00,0003.21
2021-10-20 23:19:00,,0829.8,4.99,0.00,30.2,29.6,00.0,39.3,31.9,10.4,0000.0,0014.33,0003.97,0003.16
2021-10-20 23:20:00,,0829.8,5.00,0.00,30.2,29.6,00.0,39.3,32.0,10.3,0000.0,0014.56,0003.95,0003.11
2021-10-20 23:21:00,,0829.8,5.00,0.00,30.2,29.6,00.0,39.3,32.0,10.1,0000.0,0014.37,0003.92,0003.02
2021-10-20 23:22:00,,0829.8,5.01,0.00,30.2,29.6,00.0,39.3,31.9,10.1,0000.0,0013.89,0003.84,0002.93
2021-10-20 23:23:00,,0829.8,4.99,0.00,30.2,29.6,00.0,39.3,31.9,10.1,0000.0,0014.16,0003.77,0002.86
2021-10-20 23:24:00,,0829.8,5.02,0.00,30.2,29.6,00.0,39.3,31.9,10.2,0000.0,0015.03,0003.76,0002.79
2021-10-20 23:25:00,,0829.9,4.99,0.00,30.2,29.6,00.0,39.3,31.9,10.6,0000.0,0016.77,0003.83,0002.78
2021-10-20 23:26:00,,0829.9,5.01,0.00,30.2,29.6,00.0,39.3,31.9,10.9,0000.0,0016.37,0003.95,0002.89
2021-10-20 23:27:00,,0829.9,5.00,0.00,30.2,29.6,00.0,39.3,31.9,11.0,0000.0,0017.03,0004.06,0003.05
2021-10-20 23:28:00,,0829.9,5.01,0.00,30.2,29.6,00.0,39.3,31.9,11.1,0000.0,0017.94,0004.15,0003.18
2021-10-20 23:29:00,,0829.8,5.00,0.00,30.2,29.6,00.0,39.3,31.9,11.2,0000.0,0017.63,0004.18,0003.27
2021-10-20 23:30:00,,0829.8,5.01,0.00,30.2,29.6,00.0,39.3,31.9,11.2,0000.0,0016.80,0004.23,0003.36
2021-10-20 23:31:00,,0829.9,5.00,0.00,30.2,29.5,00.0,39.3,31.9,11.2,0000.0,0016.04,0004.28,0003.46
2021-10-20 23:32:00,,0829.9,5.00,0.00,30.2,29.5,00.0,39.4,31.9,11.3,0000.0,0016.22,0004.39,0003.57
2021-10-20 23:33:00,,0829.9,5.00,0.00,30.2,29.5,00.0,39.4,31.9,11.3,0000.0,0017.00,0004.55,0003.68
2021-10-20 23:34:00,,0829.9,5.00,0.00,30.2,29.5,00.0,39.4,31.9,11.4,0000.0,0016.11,0004.68,0003.79
2021-10-20 23:35:00,,0829.8,5.00,0.00,30.2,29.5,00.0,39.4,31.9,11.4,0000.0,0015.65,0004.78,0003.89
2021-10-20 23:36:00,,0829.9,4.99,0.00,30.2,29.6,00.0,39.4,31.9,11.4,0000.0,0015.12,0004.81,0003.98
2021-10-20 23:37:00,,0829.9,5.00,0.00,30.2,29.6,00.0,39.4,31.9,11.4,0000.0,0015.70,0004.85,0004.02
2021-10-20 23:38:00,,0829.9,5.01,0.00,30.2,29.6,00.0,39.4,31.9,11.4,0000.0,0015.23,0004.85,0004.02
2021-10-20 23:39:00,,0829.9,4.99,0.00,30.2,29.6,00.0,39.4,31.9,11.4,0000.0,0015.26,0004.89,0004.03
2021-10-20 23:40:00,,0829.8,5.01,0.00,30.2,29.6,00.0,39.4,31.9,11.5,0000.0,0015.96,0004.92,0004.04
2021-10-20 23:41:00,,0829.9,5.01,0.00,30.2,29.6,00.0,39.4,31.9,11.5,0000.0,0016.32,0004.94,0004.06
2021-10-20 23:42:00,,0829.9,4.99,0.00,30.2,29.6,00.0,39.4,31.9,11.5,0000.0,0015.89,0004.99,0004.07
2021-10-20 23:43:00,,0829.9,5.00,0.00,30.3,29.6,00.0,39.4,32.0,11.5,0000.0,0015.83,0004.98,0004.08
2021-10-20 23:44:00,,0829.9,5.00,0.00,30.3,29.6,00.0,39.4,32.0,11.5,0000.0,0015.21,0004.95,0004.10
2021-10-20 23:45:00,,0829.9,5.00,0.00,30.3,29.6,00.0,39.4,31.9,11.5,0000.0,0015.26,0004.96,0004.11
2021-10-20 23:46:00,,0830.0,5.01,0.00,30.3,29.6,00.0,39.4,32.0,11.5,0000.0,0014.82,0005.01,0004.12
2021-10-20 23:47:00,,0829.9,4.99,0.00,30.2,29.6,00.0,39.4,32.0,11.5,0000.0,0014.53,0005.00,0004.12
2021-10-20 23:48:00,,0829.9,5.01,0.00,30.3,29.6,00.0,39.4,31.9,11.5,0000.0,0014.96,0005.01,0004.12
2021-10-20 23:49:00,,0829.8,5.01,0.00,30.3,29.6,00.0,39.4,31.9,11.5,0000.0,0014.65,0005.02,0004.12
2021-10-20 23:50:00,,0829.9,5.00,0.00,30.3,29.6,00.0,39.4,31.9,11.5,0000.0,0013.47,0004.96,0004.09
2021-10-20 23:51:00,,0829.8,4.99,0.00,30.3,29.6,00.0,39.4,31.9,11.5,0000.0,0013.30,0004.99,0004.08
2021-10-20 23:52:00,,0829.9,5.01,0.00,30.3,29.6,00.0,39.4,31.9,11.5,0000.0,0013.54,0005.02,0004.08
2021-10-20 23:53:00,,0829.9,4.98,0.00,30.3,29.6,00.0,39.4,31.9,11.5,0000.0,0013.68,0004.98,0004.07
2021-10-20 23:54:00,,0829.9,5.00,0.00,30.3,29.6,00.0,39.4,31.9,11.5,0000.0,0013.47,0004.94,0004.05
2021-10-20 23:55:00,,0829.8,5.00,0.00,30.3,29.6,00.0,39.4,31.9,11.5,0000.0,0013.68,0004.97,0004.05
2021-10-20 23:56:00,,0829.9,4.99,0.00,30.3,29.6,00.0,39.4,31.9,11.5,0000.0,0014.52,0004.96,0004.04
2021-10-20 23:57:00,,0829.9,5.00,0.00,30.3,29.5,00.0,39.4,32.0,11.5,0000.0,0014.50,0004.91,0004.02
2021-10-20 23:58:00,,0829.9,5.00,0.00,30.3,29.5,00.0,39.4,32.0,11.5,0000.0,0014.76,0004.88,0004.01
2021-10-20 23:59:00,,0830.0,5.00,0.00,30.3,29.1,00.0,39.4,31.9,11.5,0000.0,0014.06,0004.87,0003.99
